Location: Unspecified
(58.9933°N, 5.6375°E)
Time: 16:24:21
(UTC+02:00)

Cosmos 1674 - Visible Passes

Search period start: 23 October 2014 00:00
Search period end: 01 November 2014 23:00
Orbit: 514 x 540 km, 82.5° (Epoch: 22 October)

Date Brightness Start Highest point End Pass type
(mag) Time Alt. Az. Time Alt. Az. Time Alt. Az.
23 Oct 3.7 06:52:29 10° S 06:56:21 54° E 07:00:15 10° NNE visible
24 Oct 3.8 06:41:09 10° S 06:45:00 50° E 06:48:52 10° NNE visible
25 Oct 3.9 06:29:49 10° SSE 06:33:37 46° E 06:37:28 10° NNE visible
26 Oct 4.0 05:18:28 10° SSE 05:22:15 43° E 05:26:02 10° NNE visible
26 Oct 3.6 06:54:50 10° SW 06:58:21 30° WNW 07:01:54 10° N visible
27 Oct 4.2 05:07:07 10° SSE 05:10:51 40° E 05:14:36 10° NNE visible
27 Oct 3.5 06:43:20 10° SW 06:46:55 31° WNW 06:50:31 10° N visible
28 Oct 4.3 04:55:46 10° SSE 04:59:26 38° E 05:03:08 10° NNE visible
28 Oct 3.4 06:31:49 10° SW 06:35:27 33° WNW 06:39:07 10° N visible
29 Oct 4.4 04:44:23 10° SSE 04:48:01 35° E 04:51:40 10° NNE visible
29 Oct 3.4 06:20:18 10° SW 06:23:59 36° WNW 06:27:41 10° N visible
30 Oct 4.5 04:33:01 10° SSE 04:36:35 33° E 04:40:10 10° NNE visible
30 Oct 3.3 06:08:47 10° SW 06:12:30 38° WNW 06:16:15 10° N visible
30 Oct 6.2 17:33:49 10° WNW 17:34:46 11° WNW 17:35:43 10° W visible
31 Oct 4.6 04:23:02 19° SE 04:25:08 31° E 04:28:39 10° NNE visible
31 Oct 3.2 05:58:22 18° SW 06:01:00 40° WNW 06:04:48 10° N visible
01 Nov 4.7 04:12:46 26° ESE 04:13:40 29° E 04:17:06 10° NNE visible
01 Nov 3.1 05:48:05 30° WSW 05:49:30 43° WNW 05:53:19 10° N visible
